Location: San Antonio
(29.4240°N, 98.4930°W)
Time: 11:43:51
(UTC-05:00)

ISS - All Passes

Search period start: 21 July 2017 00:00
Search period end: 31 July 2017 00:00
Orbit: 400 x 408 km, 51.6° (Epoch: 21 July)

Date Brightness Start Highest point End Pass type
(mag) Time Alt. Az. Time Alt. Az. Time Alt. Az.
21 Jul - 06:01:44 10° N 06:04:13 20° NE 06:06:41 10° E visible
21 Jul - 07:37:54 10° WNW 07:40:39 25° SW 07:43:22 10° S daylight
21 Jul - 21:03:06 10° SE 21:03:30 10° SE 21:03:53 10° ESE visible
21 Jul - 22:36:31 10° WSW 22:39:37 42° NW 22:42:44 10° NNE visible
22 Jul - 05:10:50 10° NNE 05:11:43 11° NE 05:12:37 10° NE visible
22 Jul - 06:45:14 10° NW 06:48:27 61° SW 06:51:40 10° SSE daylight
22 Jul - 21:44:06 10° SW 21:47:20 78° SE 21:50:34 10° NE visible
23 Jul - 05:52:58 10° NW 05:56:11 53° NE 05:59:22 10° ESE visible
23 Jul - 20:52:13 10° SSW 20:55:06 30° SE 20:58:00 10° ENE visible
23 Jul - 22:29:25 10° W 22:31:36 17° NW 22:33:48 10° N visible
24 Jul - 05:01:04 10° NNW 05:03:48 24° NE 05:06:32 10° E visible
24 Jul - 06:37:44 10° W 06:40:07 19° SW 06:42:30 10° S daylight
24 Jul - 20:01:14 10° SSE 20:02:57 14° SE 20:04:40 10° E daylight
24 Jul - 21:36:12 10° WSW 21:39:09 32° NW 21:42:07 10° NNE visible
25 Jul - 04:09:38 10° N 04:11:18 13° NE 04:12:58 10° ENE visible
25 Jul - 05:44:48 10° WNW 05:47:56 43° SW 05:51:03 10° SSE visible
25 Jul - 20:43:34 10° SW 20:46:48 77° NW 20:50:02 10° NE daylight
26 Jul - 04:52:24 10° NW 04:55:39 73° NE 04:58:53 10° SE visible
26 Jul - 19:51:26 10° SSW 19:54:31 41° SE 19:57:35 10° ENE daylight
26 Jul - 21:29:22 10° WNW 21:31:07 14° NW 21:32:51 10° N visible
27 Jul - 04:00:19 10° NNW 04:03:15 31° NE 04:06:12 10° ESE night (unlit)
27 Jul - 05:37:39 10° W 05:39:29 14° SW 05:41:20 10° SSW night (unlit)
27 Jul - 19:00:00 10° S 19:02:17 18° SE 19:04:35 10° E daylight
27 Jul - 20:35:50 10° W 20:38:35 25° NW 20:41:21 10° NNE daylight
28 Jul - 03:08:37 10° N 03:10:46 16° NE 03:12:54 10° E night (unlit)
28 Jul - 04:44:20 10° WNW 04:47:16 32° SW 04:50:13 10° SSE night (unlit)
28 Jul - 19:42:59 10° SW 19:46:09 55° NW 19:49:21 10° NE daylight
29 Jul - 03:51:44 10° NW 03:54:59 82° SW 03:58:14 10° SE night (unlit)
29 Jul - 18:50:37 10° SSW 18:53:48 57° SE 18:57:00 10° NE daylight
29 Jul - 20:29:29 10° NW 20:30:30 11° NW 20:31:33 10° NNW daylight
30 Jul - 02:59:30 10° NNW 03:02:35 40° NE 03:05:41 10° ESE night (unlit)
30 Jul - 04:37:52 10° WSW 04:38:44 11° SW 04:39:34 10° SW night (unlit)
30 Jul - 17:58:51 10° S 18:01:32 23° SE 18:04:11 10° ENE daylight
30 Jul - 19:35:25 10° W 19:37:55 20° NW 19:40:25 10° N daylight
